Tracking 26218 objects as of 27-Sep-2022
HD Live streaming from Space Station
objects crossing your sky now

ARCSAT-1

Track ARCSAT-1 now!
10-day predictions


NORAD ID: 52161
Int'l Code: 2022-033E
Perigee: 501.1 km
Apogee: 515.8 km
Inclination: 97.4 °
Period: 94.6 minutes
Semi major axis: 6879 km
RCS: Unknown
Launch date: April 1, 2022
Source: Norway (NOR)
Launch site: AIR FORCE EASTERN TEST RANGE (AFETR)
aabbcc
Your satellite tracking list
Your tracking list is empty




NASA's NSSDC Master Catalog

Two Line Element Set (TLE):
1 52161U 22033E   22270.14191029  .00002473  00000-0  11281-3 0  9997
2 52161  97.3816 349.5413 0010665  37.2002 322.9971 15.21505882 27135
Source of the keplerian elements: AFSPC